TimeGMT,TemperatureF,Dew PointF,Humidity,Sea Level PressureIn,VisibilityMPH,Wind Direction,Wind SpeedMPH,Gust SpeedMPH,PrecipitationIn,Events,Conditions,WindDirDegrees,DateUTC
12:20 AM,48.2,44.6,87,29.68,6.2,SSW,19.6,-,N/A,Rain,Light Rain,210,2012-11-09 00:20:00
12:50 AM,48.2,44.6,87,29.68,6.2,SSW,19.6,-,N/A,Rain,Light Rain,210,2012-11-09 00:50:00
1:20 AM,48.2,44.6,87,29.68,6.2,SSW,19.6,-,N/A,Rain,Light Rain,210,2012-11-09 01:20:00
1:50 AM,48.2,44.6,87,29.65,3.7,SSW,19.6,-,N/A,Rain,Rain,210,2012-11-09 01:50:00
2:20 AM,48.2,44.6,87,29.65,4.3,SSW,16.1,-,N/A,Rain,Rain,210,2012-11-09 02:20:00
2:50 AM,48.2,46.4,93,29.62,5.0,SW,16.1,-,N/A,Rain,Light Rain,230,2012-11-09 02:50:00
3:20 AM,48.2,46.4,93,29.62,4.3,SW,19.6,-,N/A,Rain,Light Rain,220,2012-11-09 03:20:00
3:50 AM,48.2,46.4,93,29.59,5.0,SSW,18.4,-,N/A,Rain,Light Rain,210,2012-11-09 03:50:00
4:20 AM,48.2,46.4,93,29.56,5.0,SSW,18.4,-,N/A,Rain,Rain,210,2012-11-09 04:20:00
4:50 AM,48.2,46.4,93,29.56,5.0,SSW,17.3,29.9,N/A,Rain,Rain,210,2012-11-09 04:50:00
5:20 AM,48.2,46.4,93,29.53,5.6,SW,18.4,-,N/A,Rain,Rain,220,2012-11-09 05:20:00
5:50 AM,48.2,46.4,93,29.53,4.3,SSW,20.7,-,N/A,Rain,Rain,210,2012-11-09 05:50:00
6:20 AM,48.2,46.4,93,29.53,3.7,SSW,18.4,-,N/A,Rain,Rain,210,2012-11-09 06:20:00
6:50 AM,48.2,46.4,93,29.50,5.0,SW,17.3,-,N/A,,Light Drizzle,220,2012-11-09 06:50:00
7:20 AM,48.2,46.4,93,29.50,3.7,SW,16.1,-,N/A,,Drizzle,230,2012-11-09 07:20:00
7:50 AM,48.2,46.4,93,29.50,3.7,SW,18.4,-,N/A,Rain,Light Rain,230,2012-11-09 07:50:00
8:20 AM,48.2,46.4,93,29.50,3.1,SW,13.8,-,N/A,Rain,Rain,230,2012-11-09 08:20:00
8:50 AM,48.2,46.4,93,29.47,-9999.0,WSW,11.5,-,N/A,Rain,Rain,240,2012-11-09 08:50:00
9:20 AM,46.4,44.6,93,29.47,3.7,West,11.5,-,N/A,Rain,Light Rain,270,2012-11-09 09:20:00
9:50 AM,46.4,44.6,93,29.47,6.2,WSW,6.9,-,N/A,Rain,Light Rain,250,2012-11-09 09:50:00
10:20 AM,48.2,44.6,87,29.44,6.2,WSW,13.8,-,N/A,,Mostly Cloudy,240,2012-11-09 10:20:00
10:50 AM,48.2,44.6,87,29.44,6.2,SW,13.8,-,N/A,,Mostly Cloudy,230,2012-11-09 10:50:00
11:20 AM,48.2,44.6,87,29.44,6.2,WSW,13.8,-,N/A,,Mostly Cloudy,240,2012-11-09 11:20:00
11:50 AM,48.2,44.6,87,29.44,6.2,WSW,12.7,-,N/A,,Scattered Clouds,240,2012-11-09 11:50:00
12:20 PM,50.0,44.6,82,29.44,6.2,WSW,13.8,-,N/A,,Mostly Cloudy,240,2012-11-09 12:20:00
12:50 PM,48.2,42.8,82,29.42,6.2,WSW,15.0,-,N/A,,Mostly Cloudy,240,2012-11-09 12:50:00
1:20 PM,50.0,44.6,82,29.42,6.2,WSW,13.8,-,N/A,,Mostly Cloudy,240,2012-11-09 13:20:00
1:50 PM,48.2,42.8,82,29.39,6.2,SW,17.3,-,N/A,,Mostly Cloudy,230,2012-11-09 13:50:00
2:20 PM,48.2,42.8,82,29.39,6.2,SW,12.7,-,N/A,,Scattered Clouds,230,2012-11-09 14:20:00
2:50 PM,48.2,42.8,82,29.39,6.2,SW,15.0,-,N/A,,Scattered Clouds,230,2012-11-09 14:50:00
3:20 PM,48.2,41.0,76,29.36,6.2,SW,17.3,-,N/A,,Scattered Clouds,220,2012-11-09 15:20:00
3:50 PM,48.2,42.8,82,29.36,6.2,SW,11.5,-,N/A,,Scattered Clouds,230,2012-11-09 15:50:00
4:20 PM,44.6,41.0,87,29.36,6.2,West,9.2,-,N/A,,Scattered Clouds,260,2012-11-09 16:20:00
4:50 PM,46.4,39.2,76,29.36,6.2,SW,15.0,-,N/A,,Scattered Clouds,230,2012-11-09 16:50:00
5:20 PM,44.6,39.2,81,29.36,6.2,SW,15.0,-,N/A,,Scattered Clouds,230,2012-11-09 17:20:00
5:50 PM,44.6,39.2,81,29.36,6.2,SW,12.7,-,N/A,,Scattered Clouds,230,2012-11-09 17:50:00
6:20 PM,41.0,37.4,87,29.36,6.2,WSW,8.1,-,N/A,,Scattered Clouds,240,2012-11-09 18:20:00
6:50 PM,41.0,37.4,87,29.36,6.2,WSW,6.9,-,N/A,,Partly Cloudy,240,2012-11-09 18:50:00
7:20 PM,44.6,39.2,81,29.33,6.2,SW,12.7,-,N/A,,Partly Cloudy,230,2012-11-09 19:20:00
7:50 PM,44.6,39.2,81,29.33,6.2,SW,15.0,-,N/A,,Partly Cloudy,230,2012-11-09 19:50:00
8:20 PM,42.8,37.4,81,29.33,6.2,WSW,11.5,-,N/A,,Partly Cloudy,240,2012-11-09 20:20:00
8:50 PM,42.8,37.4,81,29.33,6.2,SW,10.4,-,N/A,,Partly Cloudy,230,2012-11-09 20:50:00
9:20 PM,44.6,39.2,81,29.33,6.2,SW,10.4,-,N/A,,Partly Cloudy,230,2012-11-09 21:20:00
9:50 PM,44.6,39.2,81,29.33,-9999.0,SW,10.4,-,N/A,,Clear,220,2012-11-09 21:50:00
10:20 PM,44.6,39.2,81,29.33,6.2,SW,10.4,-,N/A,,Partly Cloudy,230,2012-11-09 22:20:00
10:50 PM,42.8,39.2,87,29.33,6.2,SW,9.2,-,N/A,,Partly Cloudy,230,2012-11-09 22:50:00
11:20 PM,44.6,39.2,81,29.33,6.2,SW,11.5,-,N/A,,Partly Cloudy,220,2012-11-09 23:20:00
11:50 PM,44.6,39.2,81,29.30,-9999.0,SW,13.8,-,N/A,,Clear,220,2012-11-09 23:50:00